Date String (YYYY-MM-DD hh:mm:ss) UTC,Instrument flags,Ambient pressure (hPa),Sample flow (lpm),Bypass flow (lpm),Sample temperature (°C),Ambient temperature (°C),ASC tube jacket temperature (°C),LED temperature (°C),Box temperature (°C),Sample RH (%),Span deviation,Mass concentration (μg/m³),Mass concentration (μg/m³),Mass concentration (μg/m³)
DateTimeUTC,F1_M11,P_M11,Q1_M11,Q2_M11,T1_M11,T2_M11,T3_M11,T4_M11,T5_M11,U1_M11,ZSPAN_M11,X2_M11,X0_M11,X1_M11
2023-04-24 05:00:00,,0827.0,5.00,0.00,25.7,24.1,00.0,34.0,27.3,12.2,0001.7,0007.60,0012.19,0007.06
2023-04-24 05:01:00,,0827.1,5.01,0.00,25.7,24.0,00.0,34.0,27.3,12.2,0002.4,0007.61,0011.78,0007.04
2023-04-24 05:02:00,,0827.1,5.00,0.00,25.7,24.0,00.0,34.0,27.3,12.1,0002.1,0007.63,0011.57,0007.04
2023-04-24 05:03:00,,0827.0,5.00,0.00,25.7,24.0,00.0,34.0,27.3,12.1,0001.4,0007.62,0011.24,0007.04
2023-04-24 05:04:00,,0827.0,4.98,0.00,25.7,24.0,00.0,34.0,27.3,12.0,0001.1,0007.64,0011.22,0007.04
2023-04-24 05:05:00,,0827.0,5.01,0.00,25.6,24.0,00.0,34.0,27.3,12.1,-000.0,0007.62,0011.17,0007.03
2023-04-24 05:06:00,,0827.0,5.00,0.00,25.6,24.0,00.0,34.0,27.3,12.2,-001.6,0007.62,0011.19,0007.03
2023-04-24 05:07:00,,0827.0,5.00,0.00,25.6,24.0,00.0,34.0,27.3,12.2,-001.3,0007.64,0011.19,0007.05
2023-04-24 05:08:00,,0827.0,5.00,0.00,25.6,24.0,00.0,34.0,27.3,12.2,-000.9,0007.63,0011.11,0007.04
2023-04-24 05:09:00,,0827.0,4.99,0.00,25.6,24.0,00.0,34.0,27.3,12.1,-000.6,0007.63,0011.11,0007.03
2023-04-24 05:10:00,,0827.0,4.99,0.00,25.6,24.0,00.0,34.0,27.3,12.1,0000.6,0007.62,0011.07,0007.03
2023-04-24 05:11:00,,0826.9,5.01,0.00,25.6,24.0,00.0,34.0,27.3,12.1,0001.0,0007.60,0010.85,0007.01
2023-04-24 05:12:00,,0827.0,5.00,0.00,25.6,24.0,00.0,34.0,27.3,12.2,0000.5,0007.57,0010.72,0007.00
2023-04-24 05:13:00,,0827.0,5.01,0.00,25.6,24.0,00.0,34.0,27.3,12.3,0000.0,0007.57,0010.75,0007.01
2023-04-24 05:14:00,,0827.0,4.99,0.00,25.6,24.0,00.0,34.0,27.3,12.3,0000.4,0007.57,0011.02,0007.03
2023-04-24 05:15:00,,0827.0,5.00,0.00,25.6,24.0,00.0,34.0,27.3,12.2,0001.1,0007.56,0011.07,0007.02
2023-04-24 05:16:00,,0827.0,5.00,0.00,25.6,24.0,00.0,34.0,27.2,12.1,0000.6,0007.55,0011.11,0007.02
2023-04-24 05:17:00,,0826.9,5.01,0.00,25.6,24.0,00.0,34.0,27.2,12.1,0001.8,0007.51,0011.09,0006.99
2023-04-24 05:18:00,,0826.9,5.00,0.00,25.6,24.0,00.0,34.0,27.2,12.2,0002.1,0007.49,0011.05,0006.98
2023-04-24 05:19:00,,0827.0,5.01,0.00,25.6,24.0,00.0,34.0,27.2,12.3,0002.5,0007.49,0011.03,0006.98
2023-04-24 05:20:00,,0826.9,5.00,0.00,25.6,23.9,00.0,34.0,27.2,12.3,0002.4,0007.52,0011.13,0007.00
2023-04-24 05:21:00,,0826.9,5.00,0.00,25.6,23.9,00.0,34.0,27.2,12.3,0001.7,0007.52,0011.14,0007.01
2023-04-24 05:22:00,,0827.0,4.99,0.00,25.6,23.9,00.0,34.0,27.2,12.4,0000.4,0007.57,0011.21,0007.04
2023-04-24 05:23:00,,0826.9,5.00,0.00,25.6,23.9,00.0,33.9,27.2,12.2,0000.3,0007.56,0011.15,0007.05
2023-04-24 05:24:00,,0826.9,5.00,0.00,25.6,23.9,00.0,33.9,27.2,12.2,0000.9,0007.55,0011.14,0007.04
2023-04-24 05:25:00,,0826.9,5.00,0.00,25.5,23.9,00.0,33.9,27.1,12.3,0000.1,0007.57,0011.14,0007.02
2023-04-24 05:26:00,,0826.9,5.00,0.00,25.5,23.9,00.0,33.9,27.2,12.3,-001.3,0007.55,0010.93,0007.02
2023-04-24 05:27:00,,0826.9,5.00,0.00,25.5,23.9,00.0,33.9,27.1,12.3,-000.9,0007.55,0010.89,0007.03
2023-04-24 05:28:00,,0826.9,5.00,0.00,25.5,23.9,00.0,33.9,27.1,12.3,-001.2,0007.57,0011.00,0007.06
2023-04-24 05:29:00,,0826.9,5.00,0.00,25.5,23.9,00.0,33.9,27.1,12.3,-000.7,0007.58,0011.04,0007.06
2023-04-24 05:30:00,,0826.9,5.00,0.00,25.5,23.8,00.0,33.9,27.1,12.4,-001.0,0007.58,0011.07,0007.07
2023-04-24 05:31:00,,0826.9,5.00,0.00,25.5,23.8,00.0,33.9,27.1,12.3,-001.5,0007.56,0010.99,0007.08
2023-04-24 05:32:00,,0826.9,5.00,0.00,25.5,23.8,00.0,33.9,27.1,12.4,-001.8,0007.58,0011.09,0007.10
2023-04-24 05:33:00,,0826.9,5.00,0.00,25.5,23.8,00.0,33.9,27.1,12.5,-001.6,0007.59,0011.25,0007.12
2023-04-24 05:34:00,,0826.9,5.01,0.00,25.5,23.8,00.0,33.9,27.1,12.6,-001.9,0007.65,0011.39,0007.14
2023-04-24 05:35:00,,0826.9,5.01,0.00,25.5,23.8,00.0,33.9,27.1,12.5,-002.2,0007.71,0011.60,0007.18
2023-04-24 05:36:00,,0826.8,5.01,0.00,25.5,23.8,00.0,33.9,27.1,12.5,-002.1,0007.72,0011.52,0007.21
2023-04-24 05:37:00,,0826.8,4.99,0.00,25.5,23.8,00.0,33.8,27.1,12.4,-000.8,0007.75,0011.56,0007.22
2023-04-24 05:38:00,,0826.8,5.00,0.00,25.5,23.8,00.0,33.8,27.1,12.4,0000.9,0007.76,0011.94,0007.21
2023-04-24 05:39:00,,0826.8,5.00,0.00,25.4,23.8,00.0,33.8,27.1,12.4,0001.4,0007.80,0012.03,0007.22
2023-04-24 05:40:00,,0826.8,4.99,0.00,25.4,23.8,00.0,33.8,27.1,12.4,0002.2,0007.84,0012.10,0007.23
2023-04-24 05:41:00,,0826.8,5.00,0.00,25.4,23.8,00.0,33.8,27.1,12.4,0001.4,0007.90,0012.26,0007.25
2023-04-24 05:42:00,,0826.8,5.01,0.00,25.4,23.8,00.0,33.8,27.1,12.4,0002.8,0007.93,0012.32,0007.25
2023-04-24 05:43:00,,0826.8,5.00,0.00,25.4,23.8,00.0,33.8,27.1,12.5,0004.2,0007.93,0012.28,0007.25
2023-04-24 05:44:00,,0826.8,5.00,0.00,25.4,23.8,00.0,33.8,27.1,12.5,0003.8,0007.89,0012.04,0007.24
2023-04-24 05:45:00,,0826.8,4.99,0.00,25.4,23.7,00.0,33.8,27.0,12.5,0003.4,0007.84,0012.47,0007.21
2023-04-24 05:46:00,,0826.8,4.99,0.00,25.4,23.7,00.0,33.8,27.0,12.4,0003.1,0007.78,0012.47,0007.17
2023-04-24 05:47:00,,0826.8,5.01,0.00,25.4,23.7,00.0,33.8,27.0,12.5,0003.2,0007.76,0012.86,0007.15
2023-04-24 05:48:00,,0826.8,5.02,0.00,25.4,23.7,00.0,33.8,27.0,12.5,0003.3,0007.76,0013.15,0007.15
2023-04-24 05:49:00,,0826.8,4.99,0.00,25.4,23.7,00.0,33.8,27.0,12.4,0002.2,0007.76,0012.81,0007.16
2023-04-24 05:50:00,,0826.8,4.99,0.00,25.4,23.7,00.0,33.8,27.0,12.3,0002.3,0007.74,0012.67,0007.14
2023-04-24 05:51:00,,0826.8,4.99,0.00,25.4,23.7,00.0,33.8,27.0,12.3,0002.6,0007.68,0012.50,0007.13
2023-04-24 05:52:00,,0826.8,5.00,0.00,25.4,23.6,00.0,33.7,27.0,12.3,0002.7,0007.63,0012.40,0007.10
2023-04-24 05:53:00,,0826.8,5.01,0.00,25.3,23.6,00.0,33.7,27.0,12.3,0002.5,0007.60,0012.31,0007.07
2023-04-24 05:54:00,,0826.8,5.01,0.00,25.3,23.6,00.0,33.7,26.9,12.3,0003.0,0007.58,0012.19,0007.05
2023-04-24 05:55:00,,0826.7,5.01,0.00,25.3,23.6,00.0,33.7,26.9,12.4,0003.4,0007.59,0012.24,0007.03
2023-04-24 05:56:00,,0826.8,5.00,0.00,25.3,23.6,00.0,33.7,26.9,12.3,0003.3,0007.60,0011.86,0007.02
2023-04-24 05:57:00,,0826.8,4.99,0.00,25.3,23.6,00.0,33.7,26.9,12.4,0003.1,0007.61,0011.62,0007.02
2023-04-24 05:58:00,,0826.8,4.99,0.00,25.3,23.6,00.0,33.7,26.9,12.3,0003.0,0007.60,0011.72,0007.04
2023-04-24 05:59:00,,0826.8,5.00,0.00,25.3,23.6,00.0,33.7,26.9,12.4,0003.3,0007.57,0011.32,0007.02
